Regional Weather Roundup
Issued by NWS

Home | Current Version | Previous Version | Graphics & Text | Print | Product List | Glossary On
Versions: 1 2 3 4 5 6 7 8 9 10 11 12 13 14 15 16 17 18 19 20 21 22 23 24 25 26 27 28 29 30 31 32 33 34 35 36 37 38 39 40 41 42 43 44 45 46 47 48 49 50
000
ASUS45 KSLC 230010
RWRUT

UTAH REGIONAL WEATHER ROUNDUP
NATIONAL WEATHER SERVICE SALT LAKE CITY UT
600 PM MDT MON SEP 22 2014

UTZ001>011-023>025-230100-

NORTHERN UTAH

CITY           SKY/WX    TMP DP  RH WIND       PRES   REMARKS
HILL AFB       MOSUNNY   73  48  42 W5        30.13F
LOGAN          MOSUNNY   73  48  41 SW3       30.10F
OGDEN          SUNNY     73  48  41 W7        30.11F
PROVO AIRPORT  PTSUNNY   73  52  46 CALM      30.12F
SALT LAKE CITY MOSUNNY   76  49  38 N3        30.09F
VERNAL         PTSUNNY   69  53  56 SW3       30.15S
WENDOVER       PTSUNNY   72  52  49 CALM      30.09F
HEBER CITY     CLOUDY    68  52  56 CALM      30.17S
WEST JORDAN    PTSUNNY   73  52  46 N5        30.13S

$$

UTZ012>022-026-027-230100-

SOUTHERN UTAH

CITY           SKY/WX    TMP DP  RH WIND       PRES   REMARKS
BRYCE CANYON   MOSUNNY   68  40  35 NW10      30.31S
CEDAR CITY     SUNNY     76  36  23 S9        30.17F
MILFORD        PTSUNNY   79  46  31 S15       30.12S
MOAB/CYNLANDS  MOSUNNY   78  53  41 NW8       30.08F
PRICE          CLOUDY    69  52  54 SW3       30.19F
ST GEORGE      MOCLDY    90  41  18 W8        30.01F

$$

REGIONAL REPORTS     COLORADO/ARIZONA

CITY           SKY/WX    TMP DP  RH WIND       PRES   REMARKS
CRAIG, CO      CLOUDY    67  46  47 W12       30.20S
GRAND JUNCTION MOSUNNY   73  49  42 NW10      30.12F
RIFLE          MOSUNNY   72  49  44 N5        30.17R
MONTROSE       MOSUNNY   74  50  42 CALM      30.20F
CORTEZ         SUNNY     76  42  29 W12       30.20F
PAGE, AZ       SUNNY     85  39  19 VRB6      30.08F
GRAND CANYON   PTSUNNY   76  41  28 S8        30.25F
KINGMAN        SUNNY     88  33  14 SW13      30.04F
FLAGSTAFF      SUNNY     72  43  35 W6        30.30F

$$

REGIONAL REPORTS    NEVADA/IDAHO/WYOMING

CITY           SKY/WX    TMP DP  RH WIND       PRES   REMARKS
LAS VEGAS, NV  SUNNY     94  41  16 E8        29.89F HX  90
ELY            CLOUDY    73  43  33 SW10      30.19F
ELKO           SUNNY     78  41  26 W8        30.10F
POCATELLO, ID  PTSUNNY   73  50  44 W6        30.10F
BURLEY         MOSUNNY   72  50  45 S8        30.07F
EVANSTON, WY   MOSUNNY   63  41  44 W17G26    30.25S
ROCK SPRINGS   MOSUNNY   62  44  51 NW13      30.20F

$$



USA.gov is the U.S. government's official web portal to all federal, state and local government web resources and services.